Skip Page Navigation
NASA JPL Caltech
NASA Logo - Jet Propulsion Laboratory + View the NASA Portal
+ Center for Near-Earth Object Studies
JPL Home Earth Solar System Stars & Galaxies Technology
JPL Solar System Dynamics
BODIES ORBITS EPHEMERIDES TOOLS PHYSICAL DATA DISCOVERY FAQ SITE MAP
JPL Small-Body Database Browser
Search: [ help ]  
410675 (2008 UZ66)
Classification: Outer Main-belt Asteroid          SPK-ID: 2410675
Ephemeris | Orbit Diagram | Orbital Elements | Mission Design | Physical Parameters | Discovery Circumstances | Close-Approach Data ]

[ hide orbit diagram ]

For accurate long-term ephemerides, please instead use our Horizons system.This orbit viewer was implemented using two-body methods, and hence should not be used for determining accurate long-term trajectories (over several years or decades) or planetary encounter circumstances.


[ revert to old Java-based viewer ]

Orbital Elements at Epoch 2459000.5 (2020-May-31.0) TDB
Reference: JPL 18 (heliocentric ecliptic J2000)
 Element Value Uncertainty (1-sigma)   Units 
e .1058588671114506 7.3899e-08  
a 3.566829432244946 8.8053e-08 au
q 3.189248909367718 3.2214e-07 au
i 8.608268857055815 7.9061e-06 deg
node 251.4875337566696 3.8042e-05 deg
peri 103.4868868974481 5.1734e-05 deg
M 307.4529422826056 3.5607e-05 deg
tp 2459359.643360499105
(2021-May-25.14336050)
0.00024756 TDB
period 2460.49189804359
6.74
9.1112e-05
2.495e-07
d
yr
n .1463122070372378 5.4179e-09 deg/d
Q 3.944409955122175 9.7374e-08 au
  Orbit Determination Parameters
   # obs. used (total)      184  
   data-arc span      6815 days (18.66 yr)  
   first obs. used      2001-10-20  
   last obs. used      2020-06-17  
   planetary ephem.      DE431  
   SB-pert. ephem.      SB431-N16  
   condition code      0  
   norm. resid. RMS      .63871  
   source      ORB  
   producer      Otto Matic  
   solution date      2020-Jun-24 07:04:10  

Additional Information
 Earth MOID = 2.20037 au 
 Jupiter MOID = 1.58378 au 
 T_jup = 3.087 
[ show covariance matrix ]

Ephemeris | Orbit Diagram | Orbital Elements | Mission Design | Physical Parameters | Discovery Circumstances | Close-Approach Data ]

Physical Parameter Table
Parameter Symbol Value Units Sigma Reference Notes
absolute magnitude H 15.4   n/a MPO450422  
diameter diameter 6.320 km 2.620 urn:nasa:pds:neowise_diameters_albedos::2.0[mainbelt] (http://adsabs.harvard.edu/abs/2011ApJ...741...68M)  
geometric albedo albedo 0.037   0.025 urn:nasa:pds:neowise_diameters_albedos::2.0[mainbelt] (http://adsabs.harvard.edu/abs/2011ApJ...741...68M)  

410675 (2008 UZ66)          Discovered 2008-Oct-21 by Spacewatch at Kitt Peak
Reference: Last Updated: 2014-10-09

[ show close-approach data ]
Ephemeris | Orbit Diagram | Orbital Elements | Mission Design | Physical Parameters | Discovery Circumstances | Close-Approach Data ]
ABOUT SSD CREDITS/AWARDS PRIVACY/COPYRIGHT GLOSSARY LINKS
FirstGov 2020-Oct-25 12:43 UT
(server date/time)  
NASA Home Page
Site Manager:   Ryan S. Park
Webmaster  Alan B. Chamberlin